When you browse on this site, cookies collect data to enhance your experience and personalize the content and advertising you see.
Visit our Privacy Policy to learn more. By continuing to use the site, you agree to this use of cookies and data.
  • En España
  • Lista de países
  • Para 7 días
  • Temperatura del agua
  • El tiempo en el mapa
  • Informadores
  • user-avatar
    Iniciar sesión

    Tiempo cada hora Elx

    Hoy, 24 Febrero, Lunes

    Tiempo Temperatura Precipitaciones Viento Presión Humedad
    00:00 +11°C° 0 mm 1 mps 765 mmHg 68%
    01:00 +11°C° 0 mm 1 mps 765 mmHg 67%
    02:00 +11°C° 0 mm 1 mps 764 mmHg 65%
    03:00 +11°C° 0 mm 1 mps 764 mmHg 64%
    04:00 +10°C° 0 mm 1 mps 763 mmHg 63%
    05:00 +10°C° 0 mm 1 mps 763 mmHg 62%
    06:00 +10°C° 0 mm 1 mps 763 mmHg 61%
    07:00 +13°C° 0 mm 1 mps 763 mmHg 51%
    08:00 +15°C° 0 mm 1 mps 763 mmHg 42%
    09:00 +19°C° 0 mm 1 mps 763 mmHg 32%
    10:00 +20°C° 0 mm 1 mps 763 mmHg 29%
    11:00 +21°C° 0 mm 2 mps 762 mmHg 26%
    12:00 +23°C° 0 mm 2 mps 762 mmHg 23%
    13:00 +23°C° 0 mm 2 mps 761 mmHg 23%
    14:00 +24°C° 0 mm 2 mps 761 mmHg 23%
    15:00 +24°C° 0 mm 3 mps 760 mmHg 23%
    16:00 +21°C° 0 mm 2 mps 760 mmHg 31%
    17:00 +19°C° 0 mm 2 mps 759 mmHg 40%
    18:00 +16°C° 0 mm 2 mps 759 mmHg 48%
    19:00 +16°C° 0 mm 2 mps 759 mmHg 47%
    20:00 +15°C° 0 mm 2 mps 759 mmHg 45%
    21:00 +15°C° 0 mm 2 mps 759 mmHg 44%
    22:00 +15°C° 0 mm 2 mps 759 mmHg 42%
    23:00 +14°C° 0 mm 3 mps 759 mmHg 40%

    Mañana, 25 Febrero, Martes

    Tiempo Temperatura Precipitaciones Viento Presión Humedad
    00:00 +14°C° 0 mm 3 mps 758 mmHg 38%
    01:00 +14°C° 0 mm 3 mps 758 mmHg 40%
    02:00 +14°C° 0 mm 4 mps 757 mmHg 42%
    03:00 +14°C° 0 mm 4 mps 757 mmHg 44%
    04:00 +14°C° 0 mm 4 mps 757 mmHg 45%
    05:00 +13°C° 0 mm 4 mps 757 mmHg 47%
    06:00 +13°C° 0 mm 4 mps 757 mmHg 49%
    07:00 +15°C° 0 mm 4 mps 757 mmHg 46%
    08:00 +17°C° 0 mm 4 mps 757 mmHg 43%
    09:00 +19°C° 0 mm 5 mps 757 mmHg 40%
    10:00 +20°C° 0 mm 5 mps 757 mmHg 36%
    11:00 +22°C° 0 mm 6 mps 757 mmHg 32%
    12:00 +24°C° 0 mm 7 mps 756 mmHg 27%
    13:00 +24°C° 0 mm 7 mps 756 mmHg 28%
    14:00 +24°C° 0 mm 7 mps 755 mmHg 28%
    15:00 +24°C° 0 mm 7 mps 755 mmHg 28%
    16:00 +23°C° 0 mm 7 mps 755 mmHg 31%
    17:00 +21°C° 0 mm 6 mps 755 mmHg 34%
    18:00 +20°C° 0 mm 5 mps 755 mmHg 37%
    19:00 +19°C° 0 mm 6 mps 755 mmHg 40%
    20:00 +17°C° 0 mm 6 mps 756 mmHg 43%
    21:00 +16°C° 0 mm 6 mps 756 mmHg 47%
    22:00 +16°C° 0 mm 6 mps 756 mmHg 49%
    23:00 +15°C° 0 mm 6 mps 756 mmHg 51%

    Pasado mañana, 26 Febrero, Miércoles

    Tiempo Temperatura Precipitaciones Viento Presión Humedad
    00:00 +15°C° 0 mm 5 mps 756 mmHg 53%
    01:00 +14°C° 0 mm 5 mps 756 mmHg 55%
    02:00 +14°C° 0 mm 5 mps 756 mmHg 58%
    03:00 +13°C° 0 mm 5 mps 756 mmHg 60%
    04:00 +13°C° 0 mm 5 mps 756 mmHg 62%
    05:00 +12°C° 0 mm 5 mps 756 mmHg 64%
    06:00 +12°C° 0 mm 5 mps 756 mmHg 66%
    07:00 +13°C° 0 mm 6 mps 756 mmHg 62%
    08:00 +15°C° 0 mm 6 mps 757 mmHg 57%
    09:00 +16°C° 0 mm 7 mps 757 mmHg 53%
    10:00 +17°C° 0 mm 7 mps 757 mmHg 47%
    11:00 +18°C° 0 mm 8 mps 757 mmHg 40%
    12:00 +20°C° 0 mm 8 mps 758 mmHg 34%
    13:00 +20°C° 0 mm 8 mps 757 mmHg 31%
    14:00 +21°C° 0 mm 7 mps 757 mmHg 29%
    15:00 +21°C° 0 mm 7 mps 756 mmHg 27%
    16:00 +19°C° 0 mm 6 mps 756 mmHg 30%
    17:00 +17°C° 0 mm 5 mps 757 mmHg 33%
    18:00 +17°C° 0 mm 4 mps 757 mmHg 36%
    19:00 +14°C° 0 mm 3 mps 757 mmHg 39%
    20:00 +13°C° 0 mm 3 mps 758 mmHg 42%
    21:00 +13°C° 0 mm 2 mps 759 mmHg 45%
    22:00 +13°C° 0 mm 2 mps 759 mmHg 44%
    23:00 +13°C° 0 mm 2 mps 759 mmHg 44%

    27 Febrero, Jueves

    Tiempo Temperatura Precipitaciones Viento Presión Humedad
    00:00 +12°C° 0 mm 2 mps 759 mmHg 43%
    01:00 +12°C° 0 mm 2 mps 759 mmHg 50%
    02:00 +10°C° 0 mm 2 mps 759 mmHg 57%
    03:00 +10°C° 0 mm 2 mps 758 mmHg 63%
    04:00 +10°C° 0 mm 2 mps 758 mmHg 70%
    05:00 +10°C° 0 mm 2 mps 759 mmHg 77%
    06:00 +9°C° 0 mm 2 mps 759 mmHg 84%
    07:00 +12°C° 0 mm 1 mps 759 mmHg 79%
    08:00 +13°C° 0 mm 1 mps 759 mmHg 74%
    09:00 +15°C° 0 mm 1 mps 760 mmHg 68%
    10:00 +16°C° 0 mm 1 mps 759 mmHg 61%
    11:00 +19°C° 0 mm 1 mps 759 mmHg 53%
    12:00 +20°C° 0 mm 1 mps 759 mmHg 46%
    13:00 +19°C° 0 mm 2 mps 759 mmHg 43%
    14:00 +20°C° 0 mm 2 mps 758 mmHg 40%
    15:00 +21°C° 0 mm 3 mps 758 mmHg 38%
    16:00 +19°C° 0 mm 3 mps 758 mmHg 45%
    17:00 +17°C° 0 mm 2 mps 758 mmHg 52%
    18:00 +15°C° 0 mm 2 mps 758 mmHg 59%
    19:00 +15°C° 0 mm 2 mps 758 mmHg 61%
    20:00 +14°C° 0 mm 1 mps 758 mmHg 62%
    21:00 +13°C° 0 mm 1 mps 759 mmHg 64%
    22:00 +13°C° 0 mm 1 mps 759 mmHg 62%
    23:00 +13°C° 0 mm 1 mps 758 mmHg 61%

    28 Febrero, Viernes

    Tiempo Temperatura Precipitaciones Viento Presión Humedad
    00:00 +13°C° 0 mm 1 mps 758 mmHg 59%
    01:00 +12°C° 0 mm 1 mps 758 mmHg 59%
    02:00 +12°C° 0 mm 1 mps 758 mmHg 60%
    03:00 +12°C° 0 mm 1 mps 757 mmHg 60%
    04:00 +12°C° 0 mm 1 mps 757 mmHg 61%
    05:00 +11°C° 0 mm 1 mps 757 mmHg 62%
    06:00 +11°C° 0 mm 1 mps 757 mmHg 64%
    07:00 +14°C° 0 mm 1 mps 757 mmHg 55%
    08:00 +16°C° 0 mm 1 mps 757 mmHg 46%
    09:00 +20°C° 0 mm 1 mps 757 mmHg 38%
    10:00 +21°C° 0 mm 1 mps 757 mmHg 36%
    11:00 +21°C° 0 mm 2 mps 757 mmHg 34%
    12:00 +23°C° 0 mm 2 mps 756 mmHg 32%
    13:00 +22°C° 0 mm 3 mps 756 mmHg 33%
    14:00 +22°C° 0 mm 3 mps 755 mmHg 35%
    15:00 +22°C° 0 mm 3 mps 754 mmHg 36%
    16:00 +20°C° 0 mm 3 mps 754 mmHg 44%
    17:00 +18°C° 0 mm 2 mps 754 mmHg 52%
    18:00 +16°C° 0 mm 2 mps 754 mmHg 60%
    19:00 +15°C° 0 mm 2 mps 754 mmHg 62%
    20:00 +15°C° 0 mm 2 mps 755 mmHg 63%
    21:00 +14°C° 0 mm 1 mps 755 mmHg 65%
    22:00 +14°C° 0 mm 2 mps 755 mmHg 62%
    23:00 +14°C° 0 mm 2 mps 755 mmHg 60%

    29 Febrero, Sábado

    Tiempo Temperatura Precipitaciones Viento Presión Humedad
    00:00 +13°C° 0 mm 3 mps 755 mmHg 57%
    01:00 +13°C° 0 mm 3 mps 754 mmHg 57%
    02:00 +13°C° 0 mm 4 mps 754 mmHg 56%
    03:00 +13°C° 0 mm 5 mps 754 mmHg 56%
    04:00 +13°C° 0 mm 5 mps 754 mmHg 57%
    05:00 +12°C° 0 mm 5 mps 754 mmHg 58%
    06:00 +12°C° 0 mm 5 mps 754 mmHg 59%
    07:00 +13°C° 0 mm 6 mps 755 mmHg 55%
    08:00 +15°C° 0 mm 6 mps 755 mmHg 50%
    09:00 +17°C° 0 mm 7 mps 755 mmHg 45%
    10:00 +18°C° 0 mm 7 mps 755 mmHg 42%
    11:00 +21°C° 0 mm 7 mps 755 mmHg 39%
    12:00 +22°C° 0 mm 6 mps 756 mmHg 36%
    13:00 +22°C° 0 mm 6 mps 755 mmHg 36%
    14:00 +23°C° 0 mm 6 mps 754 mmHg 35%
    15:00 +23°C° 0 mm 5 mps 753 mmHg 34%
    16:00 +22°C° 0 mm 5 mps 753 mmHg 38%
    17:00 +20°C° 0 mm 4 mps 753 mmHg 42%
    18:00 +19°C° 0 mm 3 mps 753 mmHg 45%
    19:00 +18°C° 0 mm 4 mps 754 mmHg 49%
    20:00 +17°C° 0 mm 4 mps 754 mmHg 53%
    21:00 +17°C° 0 mm 4 mps 754 mmHg 57%
    22:00 +17°C° 0 mm 4 mps 754 mmHg 59%
    23:00 +15°C° 0 mm 5 mps 754 mmHg 61%
    Mostrar más